This demonstration page uses our WeatherBlox Daily Observations layout. Learn more.

Left ArrowRight Arrow

Hourly Observations for July 4, 2015

Temp ( °F °C ) Dew Point ( °F °C ) Humidity (%) Winds ( mph kmh ) Pressure ( in mb ) Visibility ( mi km ) Precip ( " mm )
12:53 am 00:53 Cloudy with Mist and Fog 66 18.9 65 18.3 96 96 N N/A 29.91 1013 3 5 N/A
1:53 am 01:53 Cloudy with Mist and Fog 66 18.9 65 18.3 96 96 WNW 5 7 29.91 1013 3 5 N/A
2:53 am 02:53 Partly Cloudy with Mist and Fog 65 18.3 64 17.8 97 97 N N/A 29.92 1013 4 6 N/A
3:53 am 03:53 Mostly Cloudy with Mist and Fog 65 18.3 64 17.8 97 97 N N/A 29.92 1013 4 6 N/A
4:53 am 04:53 Cloudy with Mist and Fog 66 18.9 63 17.2 90 90 N N/A 29.92 1013 6 10 N/A
5:53 am 05:53 Cloudy with Mist and Fog 64 17.8 63 17.2 96 96 N N/A 29.93 1014 6 10 N/A
6:53 am 06:53 Cloudy with Mist and Fog 64 17.8 63 17.2 96 96 N N/A 29.96 1014 5 8 N/A
7:53 am 07:53 Cloudy 67 19.4 62 16.7 84 84 N N/A 29.97 1015 9 14 N/A
8:53 am 08:53 Sunny 70 21.1 58 14.4 66 66 NNE 7 11 29.99 1016 10 16 N/A
9:53 am 09:53 Sunny 73 22.8 55 12.8 53 53 VRB 7 11 30.01 1016 10 16 N/A
10:53 am 10:53 Sunny 75 23.9 57 13.9 54 54 NNE 8 13 30.01 1016 10 16 N/A
11:53 am 11:53 Sunny 76 24.4 59 15 56 56 NE 3 6 30.02 1017 10 16 N/A
12:53 pm 12:53 Sunny 78 25.6 60 15.6 54 54 undefined N/A 30.02 1017 10 16 N/A
1:53 pm 13:53 Sunny 80 26.7 62 16.7 54 54 NNW 7 11 30.01 1016 10 16 N/A
2:53 pm 14:53 Partly Cloudy 80 26.7 61 16.1 52 52 NW 3 6 30.01 1016 10 16 N/A
3:53 pm 15:53 Partly Cloudy 81 27.2 62 16.7 53 53 VRB 3 6 30.01 1016 10 16 N/A
4:53 pm 16:53 Partly Cloudy 81 27.2 63 17.2 54 54 WNW 3 6 30.00 1016 10 16 N/A
5:53 pm 17:53 Partly Cloudy 81 27.2 62 16.7 53 53 N 6 9 29.98 1015 10 16 N/A
6:53 pm 18:53 Sunny 80 26.7 62 16.7 54 54 N 7 11 29.98 1015 10 16 N/A
7:53 pm 19:53 Sunny 77 25 63 17.2 62 62 N 3 6 29.99 1016 10 16 N/A
8:53 pm 20:53 Sunny 69 20.6 64 17.8 84 84 N N/A 30.01 1016 10 16 N/A
9:53 pm 21:53 Clear 66 18.9 62 16.7 87 87 N N/A 30.02 1017 9 14 N/A
10:53 pm 22:53 Clear 65 18.3 62 16.7 90 90 N N/A 30.04 1017 7 11 N/A
11:53 pm 23:53 Clear with Mist and Fog 64 17.8 61 16.1 90 90 N N/A 30.05 1018 3 5 N/A

Powered by AerisWeather